[[{"header":{"parameterUnit":"m.s-1","parameterCategory":1,"la1":30.2992,"la2":30.254,"lo1":-89.0895,"lo2":-89.0443,"dy":0.0025,"dx":0.0025,"nx":19,"ny":19,"refTime":"2026-04-01T03:00:00:Z","depth":0,"parameterNumber":2,"parameterNumberName":"U-component_of_WINDS"},"data":[0,0,0,-4.6576,-4.6579,-4.6725,-4.6726,-4.6916,-4.6917,0,0,0,0,0,0,0,0,0,0,0,-4.6536,-4.6537,-4.6576,-4.658,-4.6725,-4.6726,-4.6915,-4.6917,0,0,0,0,0,0,0,0,0,0,0,-4.6535,-4.6537,-4.6539,-4.658,-4.6725,-4.6726,-4.6915,-4.6803,0,0,0,0,0,0,0,0,0,0,-4.6661,-4.6627,-4.6537,-4.6539,-4.6581,-4.6725,-4.6726,-4.6798,-4.681,-4.6851,0,-4.689,0,-4.6907,-4.693,-4.6931,0,0,0,-4.6577,-4.6617,-4.6654,-4.6539,-4.6582,-4.6725,-4.6659,-4.6805,-4.6819,-4.6868,-4.6892,-4.6899,-4.691,-4.6932,-4.6933,-4.7179,-4.7181,0,0,-4.6569,-4.6564,-4.6644,-4.6663,-4.6642,-4.6654,-4.6663,-4.6813,-4.6839,-4.6893,-4.6904,-4.6913,-4.6933,-4.6934,-4.7178,-4.718,0,0,0,-4.6547,-4.6558,-4.6591,-4.6655,-4.6681,-4.6658,-4.6669,-4.6832,-4.6844,-4.6906,-4.6915,-4.6934,-4.6936,-4.7177,-4.7179,-4.7235,0,0,0,-4.6542,-4.6546,-4.6588,-4.6586,-4.6679,-4.6759,-4.6685,-4.6833,-4.685,-4.6914,-4.6934,-4.6938,-4.7175,-4.7178,-4.7231,-4.7262,0,0,0,-4.6525,-4.6544,-4.6566,-4.6585,-4.6648,-4.6757,-4.6776,-4.6837,-4.6856,-4.6931,-4.6939,-4.7174,-4.7177,-4.7227,-4.7256,-4.7324,0,0,0,-4.6505,-4.6615,-4.6567,-4.6693,-4.6647,-4.6792,-4.6776,-4.6884,-4.6955,-4.6935,-4.7176,-4.7179,-4.7226,-4.7252,-4.732,-4.7379,-4.7405,0,0,-4.664,-4.6631,-4.6705,-4.6667,-4.6819,-4.677,-4.693,-4.7,-4.7012,-4.7123,-4.7129,-4.7232,-4.7255,-4.7323,-4.755,-4.757,0,0,0,-4.6746,-4.68,-4.6841,-4.6909,-4.6966,-4.7016,-4.7062,-4.7088,-4.7182,-4.7068,-4.7277,-4.7291,-4.7331,-4.7359,-4.7376,-4.741,-4.7192,-4.7192,-4.7192,-4.6928,-4.6938,-4.7062,-4.7089,-4.7155,-4.7202,-4.7255,-4.7298,-4.7288,-4.7338,-4.737,-4.7506,-4.754,-4.7552,-4.7587,-4.7404,-4.7404,-4.7405,-4.7405,-4.7125,-4.7201,-4.7187,-4.7301,-4.731,-4.7406,-4.7455,-4.7445,-4.7535,-4.7483,-4.7519,-4.7459,-4.7574,-4.7605,-4.7409,-4.7408,-4.7408,-4.7407,-4.7407,-4.7244,-4.7281,-4.7312,-4.741,-4.7485,-4.7509,-4.7596,-4.7602,-4.7608,-4.7644,-4.7677,-4.7676,-4.7674,-4.766,-4.766,-4.7661,-4.7661,-4.7661,-4.7662,-4.7353,-4.7386,-4.7458,-4.7528,-4.7572,-4.763,-4.7678,-4.7721,-4.777,-4.7768,-4.7768,-4.7752,-4.7584,-4.754,-4.7669,-4.7668,-4.7667,-4.7666,-4.7666,-4.7545,-4.7503,-4.7615,-4.7659,-4.774,-4.7813,-4.782,-4.7907,-4.7944,-4.7986,-4.7964,-4.784,-4.783,-4.7816,-4.778,-4.7963,-4.7963,-4.7963,-4.7963,-4.7643,-4.7639,-4.7754,-4.7824,-4.7893,-4.7911,-4.8036,-4.8074,-4.8108,-4.813,-4.8106,-4.8059,-4.8045,-4.8043,-4.8025,-4.7991,-4.8223,-4.8224,-4.8224,-4.776,-4.7764,-4.7869,-4.7901,-4.7965,-4.802,-4.8137,-4.8216,-4.8246,-4.8234,-4.8148,-4.8137,-4.8061,-4.8037,-4.8021,-4.7992,-4.793,0,0]},{"header":{"parameterUnit":"m.s-1","parameterCategory":1,"la1":30.2992,"la2":30.254,"lo1":-89.0895,"lo2":-89.0443,"dy":0.0025,"dx":0.0025,"nx":19,"ny":19,"refTime":"2026-04-01T03:00:00:Z","depth":0,"parameterNumber":3,"parameterNumberName":"V-component_of_WINDS"},"data":[0,0,0,3.8934,3.8936,3.9044,3.9045,3.9187,3.9188,0,0,0,0,0,0,0,0,0,0,0,3.8905,3.8907,3.8934,3.8937,3.9044,3.9045,3.9187,3.9188,0,0,0,0,0,0,0,0,0,0,0,3.8905,3.8906,3.8908,3.8937,3.9044,3.9045,3.9186,3.9103,0,0,0,0,0,0,0,0,0,0,3.8998,3.8975,3.8906,3.8908,3.8938,3.9044,3.9045,3.9099,3.9108,3.914,0,3.917,0,3.9182,3.9198,3.9199,0,0,0,3.8933,3.8967,3.8993,3.8908,3.8939,3.9044,3.8995,3.9104,3.9115,3.9153,3.9172,3.9177,3.9184,3.9199,3.92,3.9398,3.9399,0,0,3.8928,3.8926,3.8986,3.9,3.8985,3.8991,3.8998,3.911,3.9131,3.9173,3.9181,3.9187,3.92,3.9201,3.9397,3.9399,0,0,0,3.8913,3.8922,3.8946,3.8995,3.9014,3.8995,3.9002,3.9126,3.9134,3.9182,3.9188,3.9201,3.9203,3.9396,3.9398,3.9451,0,0,0,3.8909,3.8913,3.8943,3.8943,3.9012,3.9072,3.9016,3.9126,3.9139,3.9188,3.9201,3.9204,3.9395,3.9397,3.9447,3.9476,0,0,0,3.8897,3.8912,3.8929,3.8943,3.899,3.907,3.9084,3.9129,3.9143,3.9199,3.9205,3.9394,3.9397,3.9444,3.947,3.953,0,0,0,3.8884,3.8973,3.893,3.9031,3.8989,3.9103,3.9083,3.9168,3.9222,3.9202,3.9395,3.9398,3.9443,3.9467,3.9526,3.958,3.9602,0,0,3.8995,3.8986,3.9046,3.9011,3.9132,3.9086,3.9215,3.9264,3.927,3.9355,3.936,3.9449,3.947,3.9529,3.9726,3.9744,0,0,0,3.9081,3.9124,3.9157,3.9209,3.9251,3.929,3.932,3.9339,3.9412,3.9314,3.9486,3.9498,3.9533,3.9559,3.9574,3.9604,3.9409,3.9409,3.9409,3.9235,3.924,3.934,3.9359,3.941,3.9443,3.9485,3.9516,3.9502,3.9543,3.9569,3.9688,3.9718,3.973,3.9761,3.9597,3.9597,3.9597,3.9598,3.9399,3.9462,3.9447,3.9538,3.9543,3.9619,3.9655,3.9644,3.9716,3.9669,3.9699,3.9648,3.9749,3.9777,3.9602,3.9601,3.96,3.96,3.96,3.9502,3.9533,3.9556,3.9635,3.9695,3.971,3.9782,3.9782,3.9783,3.9813,3.9841,3.984,3.984,3.9827,3.9827,3.9827,3.9828,3.9828,3.9828,3.9599,3.9623,3.9684,3.9738,3.9774,3.9821,3.9856,3.9891,3.9929,3.9924,3.9924,3.9908,3.9758,3.9721,3.9835,3.9834,3.9833,3.9832,3.9832,3.9764,3.9728,3.9821,3.9857,3.9923,3.9984,3.9984,4.0056,4.0084,4.012,4.0098,3.9987,3.9977,3.9965,3.9934,4.0096,4.0096,4.0096,4.0096,3.9851,3.9847,3.9944,4.0002,4.0059,4.0071,4.0177,4.0206,4.023,4.0248,4.0225,4.0184,4.0172,4.0169,4.0153,4.0124,4.0331,4.0331,4.0331,3.9954,3.9956,4.0046,4.0071,4.0123,4.0167,4.0268,4.0335,4.0354,4.0341,4.0263,4.0253,4.0187,4.0165,4.0149,4.0123,4.0071,0,0]}]]